Wind_Speed
41 41 42 40 39 39 40 40 41 40 39 38 39 38 37 37 38 37 37 37 38 39 40 41 43 44 45 46 47 47 48 49 51 50 49 49 48 48 48 48 49 50 50 50
42 41 41 40 39 40 40 41 42 42 42 43 44 42 41 41 42 42 42 42 42 43 43 44 45 47 47 48 48 48 49 49 50 51 50 49 47 47 47 48 49 49 49 49
41 42 41 42 43 42 41 43 44 45 47 47 46 46 45 45 45 45 45 45 45 46 46 46 46 47 48 48 47 48 49 49 50 50 48 46 46 46 47 47 47 48 48 50
39 39 39 42 41 39 40 41 43 45 46 47 47 47 47 46 46 46 46 45 45 45 45 45 45 46 46 46 46 49 49 49 48 46 45 45 45 45 46 46 46 48 49 51
35 36 37 39 37 36 37 38 40 41 43 44 44 45 45 45 45 45 44 43 42 41 41 41 42 43 43 44 48 49 47 46 45 44 42 43 44 44 45 46 47 49 50 50
32 33 34 38 35 35 36 37 38 38 39 40 41 42 43 42 42 41 41 40 39 37 37 38 39 41 43 45 46 45 44 43 42 41 41 42 43 44 45 47 48 49 49 48
30 31 34 34 33 34 34 35 35 35 36 36 37 38 38 37 37 37 37 36 35 34 34 35 38 40 43 43 42 41 40 39 39 39 40 41 43 44 46 47 47 47 46 44
27 29 31 31 31 32 32 31 31 31 32 32 32 32 32 32 32 32 31 30 30 31 32 34 37 39 39 39 38 37 36 36 37 38 39 41 43 45 45 45 45 43 41 39
25 26 28 28 28 28 28 27 26 27 27 26 26 26 25 25 24 24 25 25 26 28 30 32 34 35 33 31 30 31 32 34 36 37 40 42 43 43 43 42 41 39 36 33
22 23 24 24 24 24 23 22 21 21 20 19 19 18 18 18 19 20 22 23 25 26 26 25 25 24 24 26 28 29 31 34 36 38 40 41 42 41 40 38 35 32 30 27
20 21 21 20 20 19 18 17 15 14 14 14 14 13 14 15 17 17 17 18 18 18 18 18 19 20 22 23 26 29 32 34 37 39 39 39 38 37 35 32 29 27 24 22
18 18 18 16 15 13 12 10 9 8 7 8 8 10 10 12 12 11 11 11 12 13 14 15 17 18 20 23 27 30 33 35 37 37 37 36 34 31 28 25 23 22 20 18
15 15 14 12 10 8 8 7 5 5 5 5 5 6 6 7 7 7 7 8 9 10 11 13 15 18 22 25 28 31 33 35 35 34 33 31 28 26 23 21 20 18 16 14
10 10 10 9 6 5 4 4 4 3 3 2 3 2 3 3 3 3 4 5 7 8 11 14 17 20 23 26 29 31 32 33 32 30 28 26 24 22 20 19 18 16 13 11
7 7 8 8 7 6 4 4 4 3 3 2 2 2 1 1 2 3 4 5 7 9 12 15 18 21 24 27 29 30 30 29 28 26 23 21 20 19 17 16 15 14 11 9
5 6 7 8 7 5 5 5 5 5 4 3 3 3 2 2 2 3 4 6 8 11 14 17 20 23 25 27 28 28 27 26 24 22 20 19 18 17 16 15 13 12 10 8
5 6 7 7 7 6 6 7 6 6 5 4 3 3 3 3 4 5 6 7 10 13 15 18 21 24 25 26 26 26 25 23 22 20 18 17 17 16 15 13 12 11 9 7
5 6 6 7 7 7 7 7 6 5 5 5 4 4 5 5 6 7 8 10 12 14 17 19 22 24 25 26 25 24 24 23 21 19 17 17 16 15 14 13 11 11 10 8
6 6 6 6 6 6 6 6 6 6 6 5 6 6 7 7 8 9 10 11 13 15 18 20 22 24 25 25 25 25 24 23 21 19 18 17 16 16 14 12 11 11 11 11
6 5 4 4 4 4 5 5 6 6 6 7 7 8 9 9 10 10 11 12 14 16 19 21 23 25 26 27 27 26 25 24 22 21 19 18 17 16 15 13 12 12 12 12
7 6 4 3 4 4 5 5 6 7 7 8 9 10 10 11 10 10 11 13 15 17 20 22 24 26 28 29 29 29 28 26 24 23 22 20 18 17 16 14 13 13 13 14
8 7 6 5 5 6 6 7 7 8 9 10 11 11 12 11 11 11 12 13 16 18 21 23 26 29 30 31 31 31 31 29 28 26 25 23 21 19 18 16 15 14 15 15
10 8 7 6 6 7 8 8 9 10 11 12 13 13 13 12 12 12 12 14 16 19 22 25 28 30 32 33 33 33 33 32 31 30 28 27 25 23 21 19 18 17 17 17
10 9 8 7 8 9 9 10 11 12 13 14 15 15 14 13 13 12 13 14 17 19 23 26 29 31 33 35 35 35 36 35 34 33 32 31 29 27 25 23 21 20 19 18
12 11 10 9 10 10 11 11 13 14 15 16 17 16 15 14 13 13 13 14 16 19 23 26 29 31 34 36 36 37 38 38 38 37 36 35 34 32 30 27 25 23 22 21
13 12 11 10 11 12 12 13 14 16 17 18 19 18 16 15 14 13 13 14 16 19 22 25 28 30 33 35 37 38 39 40 40 40 39 39 38 37 34 32 29 27 26 24
14 13 12 12 12 13 14 14 16 18 19 20 20 19 17 16 15 14 14 14 15 18 21 23 26 28 31 34 36 38 39 41 42 43 43 42 42 41 39 37 35 32 31 29
Wind_Direction
253 254 257 260 259 259 260 260 263 265 268 271 271 272 274 276 278 280 281 281 282 283 283 285 286 287 288 289 291 292 294 293 292 292 295 300 301 300 299 299 300 300 299 299
257 259 259 261 261 262 263 265 267 269 270 270 270 272 274 276 278 279 280 280 281 282 283 284 285 285 286 288 290 291 290 289 289 291 296 299 299 299 300 301 301 301 301 302
256 259 262 263 263 263 265 267 268 269 270 273 275 276 277 278 279 279 279 279 280 280 281 282 283 283 283 287 289 288 285 285 287 291 295 298 299 300 301 302 302 303 304 305
257 260 260 262 265 265 265 266 266 268 270 272 274 275 276 277 277 277 277 277 277 278 279 279 280 281 282 284 283 280 280 283 287 291 295 299 300 302 303 304 305 306 307 308
256 259 262 263 265 266 266 267 267 268 270 271 273 275 275 275 275 276 276 275 275 275 276 277 277 277 277 275 273 273 279 285 290 295 298 301 303 304 305 306 308 309 310 310
257 260 264 265 267 268 269 270 270 271 271 272 273 273 274 274 274 274 274 274 274 273 273 275 274 273 272 270 270 275 282 287 293 298 302 304 305 307 308 309 310 311 312 313
258 262 264 268 270 271 272 273 274 274 273 272 272 272 273 272 272 271 272 272 271 271 271 271 270 269 267 269 273 280 286 292 298 302 305 307 308 309 310 311 312 313 313 314
259 263 266 269 270 271 273 274 274 274 274 273 273 272 272 271 271 270 269 269 268 268 268 266 266 266 267 273 280 287 294 300 304 307 309 310 311 312 312 313 314 315 315 316
262 264 268 271 273 274 274 273 273 273 273 273 273 272 272 270 269 268 267 267 265 264 264 264 265 268 275 284 292 298 303 306 309 311 312 313 313 314 315 315 316 317 318 319
265 266 269 272 274 275 274 274 275 274 272 270 271 270 269 269 266 266 265 264 260 261 266 268 272 280 290 297 303 306 309 312 314 314 315 315 316 316 317 317 318 320 321 322
267 268 270 272 273 274 273 273 273 270 269 267 265 265 263 263 265 263 262 261 261 268 275 282 292 298 303 307 311 314 316 317 317 317 318 319 319 319 320 320 321 322 324 325
265 264 267 269 269 268 266 266 267 263 265 261 261 260 260 260 258 258 262 269 277 285 294 300 305 310 315 319 321 321 321 321 321 321 322 322 323 323 324 325 326 326 328 329
259 257 255 255 258 252 248 247 253 253 262 262 253 242 249 258 261 267 278 288 296 303 310 317 322 325 327 327 327 326 326 325 325 325 326 327 328 330 331 332 332 333 334 336
245 237 231 227 228 222 222 226 225 226 238 244 231 236 245 255 272 293 308 318 325 330 334 335 335 335 334 333 332 331 330 329 329 329 330 332 335 336 337 338 340 342 343 345
211 211 214 211 210 202 194 190 173 163 169 177 173 161 127 72 19 353 346 347 349 348 347 346 344 341 339 338 336 335 335 335 336 337 338 340 342 344 345 346 348 352 356 360
187 192 195 191 182 168 157 150 141 134 131 125 119 110 89 59 31 19 18 13 7 2 358 354 350 347 345 343 341 341 342 343 344 345 347 349 352 354 355 356 359 4 10 20
172 177 177 170 158 152 147 140 133 130 125 120 114 107 94 78 68 58 43 30 20 11 4 359 356 354 352 351 351 352 353 353 354 355 358 0 1 3 5 8 13 18 24 43
170 156 149 148 144 138 130 127 126 127 126 122 114 105 95 88 80 67 53 38 24 16 10 6 4 2 1 1 2 3 3 4 4 6 8 9 10 12 16 22 28 35 45 68
151 136 136 135 135 133 130 128 127 128 127 121 113 105 99 93 84 73 55 40 29 22 17 14 12 11 11 12 12 12 12 12 14 15 15 16 19 21 25 33 42 50 61 78
176 160 150 145 141 139 139 137 135 133 132 128 121 113 106 99 88 73 57 44 35 29 25 22 20 20 20 21 20 20 20 21 22 23 24 25 27 30 35 44 53 61 70 84
186 183 183 179 171 163 153 148 146 144 139 135 129 122 114 105 92 76 62 50 42 37 34 31 30 29 29 28 28 28 28 29 30 31 31 33 35 38 44 52 61 70 79 88
197 202 204 196 185 174 162 156 153 150 145 139 133 127 120 110 97 82 69 58 51 47 44 41 39 37 36 35 35 35 35 36 37 37 38 39 42 46 51 57 66 75 84 91
204 203 200 193 186 174 165 160 157 154 149 144 139 133 126 116 104 90 76 66 60 55 52 49 46 44 42 41 41 41 40 41 41 42 43 45 47 50 55 61 69 78 86 92
204 198 196 190 180 171 166 162 161 158 154 149 145 139 132 122 111 97 85 75 67 63 59 56 53 50 48 47 47 46 45 45 46 46 47 48 50 53 57 63 70 77 84 91
198 195 194 188 179 173 170 166 163 161 157 154 150 144 137 128 118 105 93 83 75 70 66 63 59 56 54 52 51 51 50 49 49 50 51 51 53 55 58 64 69 75 82 88
195 196 193 188 181 175 170 166 164 162 160 158 154 148 142 134 125 114 103 93 83 78 73 68 65 61 59 57 56 55 55 54 53 53 54 54 55 56 59 64 69 73 78 83
194 192 190 186 180 174 170 167 167 165 163 161 158 153 147 140 132 123 113 102 92 85 79 74 69 66 63 61 60 59 58 57 57 57 57 57 58 59 61 64 67 71 75 79
Height
5741 5743 5745 5746 5748 5749 5750 5751 5752 5752 5753 5753 5750 5750 5750 5749 5748 5748 5747 5745 5743 5741 5739 5737 5734 5731 5727 5724 5720 5716 5711 5707 5702 5697 5692 5687 5682 5676 5670 5664 5658 5652 5645 5638
5730 5732 5734 5736 5738 5739 5740 5740 5740 5740 5740 5740 5738 5739 5739 5738 5737 5737 5735 5734 5732 5730 5728 5726 5723 5719 5716 5712 5708 5704 5700 5695 5690 5685 5680 5675 5670 5664 5659 5652 5646 5639 5632 5625
5720 5722 5723 5725 5726 5728 5729 5729 5729 5728 5728 5726 5726 5726 5726 5726 5725 5724 5723 5722 5720 5718 5717 5714 5712 5708 5704 5701 5697 5693 5688 5683 5678 5673 5668 5664 5659 5653 5647 5641 5634 5627 5619 5612
5711 5712 5714 5715 5715 5717 5718 5718 5717 5716 5716 5715 5715 5714 5714 5713 5712 5712 5711 5710 5708 5707 5705 5703 5700 5697 5694 5690 5686 5682 5677 5672 5667 5662 5657 5653 5647 5641 5635 5629 5622 5614 5607 5599
5701 5702 5703 5703 5705 5706 5706 5706 5706 5705 5705 5704 5703 5702 5701 5700 5699 5699 5698 5697 5696 5695 5694 5692 5689 5687 5683 5680 5675 5670 5665 5661 5656 5651 5646 5641 5636 5630 5623 5616 5609 5602 5594 5587
5692 5693 5694 5693 5695 5695 5696 5695 5694 5694 5693 5693 5692 5691 5690 5688 5687 5686 5686 5685 5685 5684 5683 5681 5679 5676 5673 5669 5664 5660 5655 5651 5646 5641 5636 5630 5624 5618 5611 5604 5597 5590 5583 5576
5683 5683 5683 5684 5684 5685 5686 5685 5684 5682 5682 5681 5680 5680 5679 5677 5676 5676 5675 5675 5675 5674 5673 5672 5670 5667 5663 5659 5655 5651 5646 5641 5636 5631 5625 5619 5613 5607 5600 5593 5586 5579 5572 5566
5675 5675 5676 5675 5675 5675 5675 5674 5673 5671 5671 5670 5669 5668 5668 5667 5666 5666 5666 5666 5666 5665 5664 5663 5660 5657 5653 5649 5645 5642 5637 5632 5627 5621 5615 5609 5603 5596 5589 5582 5575 5569 5562 5556
5667 5668 5667 5666 5665 5665 5665 5664 5664 5663 5662 5661 5661 5660 5659 5659 5659 5658 5658 5658 5658 5657 5656 5654 5652 5649 5645 5641 5638 5634 5629 5624 5618 5612 5606 5599 5593 5586 5579 5572 5566 5559 5553 5547
5659 5659 5659 5658 5657 5657 5657 5656 5656 5655 5655 5654 5654 5653 5653 5653 5653 5652 5652 5652 5651 5650 5649 5647 5644 5641 5638 5635 5631 5626 5621 5616 5610 5604 5597 5590 5583 5576 5570 5563 5557 5551 5546 5541
5652 5652 5652 5652 5651 5651 5650 5650 5649 5649 5649 5648 5648 5648 5648 5648 5648 5648 5647 5647 5646 5645 5643 5641 5639 5636 5633 5629 5625 5620 5614 5608 5602 5595 5588 5581 5574 5568 5562 5556 5550 5546 5541 5537
5646 5646 5646 5646 5646 5646 5646 5646 5645 5645 5645 5645 5645 5645 5645 5645 5645 5645 5645 5644 5643 5642 5640 5638 5635 5632 5628 5624 5619 5614 5608 5601 5594 5587 5580 5573 5567 5562 5555 5550 5546 5541 5537 5533
5640 5640 5641 5642 5642 5642 5642 5643 5643 5643 5643 5643 5643 5644 5644 5644 5644 5643 5643 5642 5641 5639 5637 5635 5632 5628 5624 5619 5614 5608 5601 5594 5587 5580 5574 5567 5561 5556 5551 5546 5542 5538 5534 5530
5635 5636 5637 5638 5639 5640 5640 5641 5641 5642 5642 5643 5643 5643 5643 5643 5643 5643 5642 5641 5639 5638 5635 5632 5629 5625 5621 5615 5609 5603 5596 5589 5582 5575 5568 5562 5557 5552 5547 5543 5539 5535 5531 5528
5633 5634 5635 5636 5638 5638 5639 5640 5641 5642 5642 5643 5643 5643 5643 5643 5643 5643 5642 5640 5639 5637 5634 5631 5627 5623 5618 5612 5605 5598 5591 5584 5577 5570 5565 5559 5554 5549 5545 5541 5537 5533 5530 5527
5632 5633 5634 5636 5637 5638 5639 5640 5641 5642 5643 5644 5644 5644 5644 5644 5643 5643 5642 5640 5639 5636 5634 5630 5626 5621 5616 5609 5602 5595 5587 5580 5574 5568 5562 5557 5552 5548 5544 5539 5536 5532 5529 5527
5633 5634 5635 5636 5637 5639 5640 5641 5642 5643 5644 5644 5645 5645 5645 5644 5644 5643 5642 5641 5639 5637 5634 5630 5626 5620 5614 5607 5600 5592 5585 5578 5572 5566 5561 5556 5552 5547 5543 5539 5536 5533 5530 5528
5634 5635 5636 5637 5638 5639 5640 5642 5642 5643 5644 5645 5645 5645 5645 5645 5645 5644 5643 5642 5640 5638 5635 5630 5625 5620 5613 5606 5598 5591 5584 5578 5572 5566 5561 5556 5552 5548 5543 5540 5536 5534 5531 5530
5634 5635 5637 5638 5639 5640 5641 5642 5643 5644 5644 5645 5646 5646 5646 5646 5646 5646 5645 5644 5642 5640 5636 5631 5626 5620 5613 5606 5599 5592 5585 5578 5572 5567 5562 5557 5552 5548 5544 5541 5538 5536 5534 5532
5635 5636 5637 5638 5639 5640 5641 5642 5643 5644 5645 5646 5646 5647 5648 5648 5648 5648 5648 5647 5644 5641 5638 5633 5628 5621 5614 5607 5600 5593 5586 5580 5574 5568 5563 5558 5554 5550 5546 5543 5540 5538 5536 5535
5634 5636 5637 5638 5639 5640 5641 5642 5643 5644 5645 5646 5647 5648 5649 5650 5651 5651 5650 5649 5647 5644 5640 5635 5630 5623 5616 5610 5603 5596 5589 5582 5577 5571 5566 5561 5556 5552 5548 5545 5543 5541 5540 5539
5633 5635 5637 5638 5639 5640 5641 5642 5643 5645 5646 5647 5649 5650 5652 5653 5653 5654 5653 5652 5650 5647 5643 5639 5633 5627 5621 5614 5607 5600 5593 5587 5581 5575 5570 5565 5560 5556 5552 5549 5546 5545 5544 5543
5633 5634 5636 5637 5638 5639 5641 5642 5644 5645 5647 5648 5650 5652 5654 5655 5656 5656 5656 5655 5653 5650 5647 5642 5637 5632 5626 5619 5613 5606 5599 5593 5587 5581 5575 5570 5565 5560 5557 5553 5551 5549 5548 5548
5631 5633 5635 5636 5638 5639 5641 5642 5644 5646 5648 5650 5652 5654 5656 5658 5659 5659 5659 5658 5657 5654 5651 5647 5642 5638 5632 5626 5619 5613 5607 5601 5594 5588 5582 5577 5571 5566 5562 5559 5557 5555 5554 5553
5630 5632 5634 5636 5637 5639 5640 5642 5644 5646 5649 5651 5654 5656 5658 5660 5661 5662 5662 5662 5660 5658 5656 5652 5648 5644 5639 5633 5627 5621 5615 5609 5603 5597 5591 5585 5579 5574 5569 5566 5563 5561 5560 5559
5629 5631 5633 5635 5636 5638 5640 5642 5644 5646 5649 5652 5655 5658 5660 5662 5664 5665 5665 5665 5664 5663 5660 5657 5654 5650 5646 5641 5636 5630 5625 5619 5613 5606 5600 5594 5588 5583 5578 5574 5571 5569 5567 5566
5627 5629 5632 5633 5635 5638 5640 5642 5644 5647 5650 5653 5657 5660 5662 5664 5666 5667 5668 5668 5668 5667 5665 5663 5660 5657 5653 5649 5645 5640 5635 5629 5623 5617 5611 5605 5600 5594 5589 5585 5581 5578 5576 5574